Tracking 20753 objects as of 7-Jun-2020
HD Live streaming from Space Station
objects crossing your sky now
Track the most recent launched group of Starlink satellites

SL-14 DEB

Track SL-14 DEB now!
10-day predictions


NORAD ID: 26017
Int'l Code: 1991-068AC
Perigee: 1,452.7 km
Apogee: 1,547.1 km
Inclination: 82.7 °
Period: 115.8 minutes
Semi major axis: 7870 km
RCS: 0.1062 m2 (medium)
Launch date: September 28, 1991
Source: Commonwealth of Independent States (former USSR) (CIS)
Launch site: PLESETSK MISSILE AND SPACE COMPLEX (PKMTR)

Note: This is SATELLITE DEBRIS
aabbcc
Your satellite tracking list
Your tracking list is empty




NASA's NSSDC Master Catalog

Two Line Element Set (TLE):
1 26017U 91068AC  20158.61336986 +.00000039 +00000-0 +20676-3 0  9994
2 26017 082.6919 199.7789 0060005 006.5311 163.7936 12.43268796306293
Source of the keplerian elements: AFSPC